Date String (YYYY-MM-DD hh:mm:ss) UTC,Instrument flags,absolute air pressure of the measurement (hPa),sample flow rate (lpm),inlet stack bypass flow (lpm),air temperature of the measurement (°C),ambient temperature measured by the external sensor (°C),aerosol sample conditioner tube jacket temperature (°C),OPC LED temperature (°C),internal box temperature (°C),relative humidity of the measurement (%),span deviation,mass concentration of particles derived from Lorenz-Mie calculation of OPC scattering (μg/m³),mass concentration of particles derived from Lorenz-Mie calculation of OPC scattering (μg/m³),mass concentration of particles derived from Lorenz-Mie calculation of OPC scattering (μg/m³)
DateTimeUTC,F1_M11,P_M11,Q1_M11,Q2_M11,T1_M11,T2_M11,T3_M11,T4_M11,T5_M11,U1_M11,ZSPAN_M11,X0_M11,X2_M11,X1_M11
2024-03-07 01:00:00,SystemResetWarning,0820.3,5.00,000.00,022.2,021.4,000.0,030.8,024.0,10.6,0000.0,0006.79,0001.77,0000.91
2024-03-07 01:01:00,SystemResetWarning,0820.3,4.99,000.00,022.2,021.4,000.0,030.7,024.0,10.7,0000.0,0006.11,0001.80,0000.91
2024-03-07 01:02:00,SystemResetWarning,0820.2,4.99,000.00,022.2,021.4,000.0,030.7,024.0,10.7,0000.0,0005.81,0001.79,0000.92
2024-03-07 01:03:00,SystemResetWarning,0820.2,5.01,000.00,022.2,021.4,000.0,030.7,024.0,10.6,0000.0,0004.81,0001.85,0000.92
2024-03-07 01:04:00,SystemResetWarning,0820.2,5.01,000.00,022.2,021.4,000.0,030.7,024.0,10.6,0000.0,0004.81,0001.87,0000.92
2024-03-07 01:05:00,SystemResetWarning,0820.1,5.00,000.00,022.2,021.3,000.0,030.7,024.0,10.6,0000.0,0004.42,0001.82,0000.92
2024-03-07 01:06:00,SystemResetWarning,0820.1,5.00,000.00,022.2,021.3,000.0,030.7,024.0,10.7,0000.0,0004.21,0001.78,0000.92
2024-03-07 01:07:00,SystemResetWarning,0820.2,5.00,000.00,022.2,021.3,000.0,030.7,024.0,10.7,0000.0,0004.97,0001.84,0000.93
2024-03-07 01:08:00,SystemResetWarning,0820.1,5.00,000.00,022.2,021.3,000.0,030.7,023.9,10.7,0000.0,0004.97,0001.87,0000.94
2024-03-07 01:09:00,SystemResetWarning,0820.0,4.99,000.00,022.1,021.3,000.0,030.7,023.9,10.7,0000.0,0004.92,0001.89,0000.95
2024-03-07 01:10:00,SystemResetWarning,0820.1,5.00,000.00,022.1,021.3,000.0,030.7,023.9,10.6,0000.0,0004.86,0001.92,0000.96
2024-03-07 01:11:00,SystemResetWarning,0820.0,5.00,000.00,022.1,021.3,000.0,030.6,023.9,10.7,0000.0,0004.91,0001.91,0000.95
2024-03-07 01:12:00,SystemResetWarning,0820.0,5.01,000.00,022.1,021.3,000.0,030.6,023.9,10.7,0000.0,0004.72,0001.87,0000.95
2024-03-07 01:13:00,SystemResetWarning,0820.0,5.00,000.00,022.1,021.3,000.0,030.6,023.9,10.8,0000.0,0004.67,0001.88,0000.96
2024-03-07 01:14:00,SystemResetWarning,0820.1,5.00,000.00,022.1,021.3,000.0,030.6,023.9,10.8,0000.0,0004.63,0001.79,0000.95
2024-03-07 01:15:00,SystemResetWarning,0820.0,5.00,000.00,022.1,021.3,000.0,030.6,023.9,10.8,0000.0,0006.23,0001.75,0000.96
2024-03-07 01:16:00,SystemResetWarning,0820.0,5.00,000.00,022.1,021.3,000.0,030.6,023.9,10.9,0000.0,0006.33,0001.77,0000.96
2024-03-07 01:17:00,SystemResetWarning,0820.1,4.99,000.00,022.1,021.3,000.0,030.6,023.9,10.9,0000.0,0006.31,0001.74,0000.96
2024-03-07 01:18:00,SystemResetWarning,0820.1,5.00,000.00,022.1,021.3,000.0,030.6,023.9,10.9,0000.0,0005.69,0001.70,0000.95
2024-03-07 01:19:00,SystemResetWarning,0820.1,5.00,000.00,022.1,021.3,000.0,030.6,023.9,10.9,0000.0,0005.64,0001.67,0000.94
2024-03-07 01:20:00,SystemResetWarning,0820.3,5.00,000.00,022.1,021.3,000.0,030.6,023.9,11.0,0000.0,0005.79,0001.62,0000.92
2024-03-07 01:21:00,SystemResetWarning,0820.2,5.00,000.00,022.1,021.3,000.0,030.6,023.9,11.0,0000.0,0005.86,0001.62,0000.92
2024-03-07 01:22:00,SystemResetWarning,0820.2,5.00,000.00,022.1,021.3,000.0,030.6,023.9,11.0,0000.0,0006.12,0001.74,0000.93
2024-03-07 01:23:00,SystemResetWarning,0820.1,4.99,000.00,022.1,021.3,000.0,030.6,023.9,10.9,0000.0,0006.22,0001.77,0000.93
2024-03-07 01:24:00,SystemResetWarning,0820.2,5.00,000.00,022.0,021.2,000.0,030.5,023.8,10.9,0000.0,0006.22,0001.77,0000.92
2024-03-07 01:25:00,SystemResetWarning,0820.2,5.01,000.00,022.0,021.2,000.0,030.6,023.8,11.0,0000.0,0006.16,0001.77,0000.93
2024-03-07 01:26:00,SystemResetWarning,0820.1,5.01,000.00,022.0,021.2,000.0,030.6,023.8,11.0,0000.0,0004.66,0001.81,0000.94
2024-03-07 01:27:00,SystemResetWarning,0820.3,5.00,000.00,022.0,021.2,000.0,030.5,023.8,11.0,0000.0,0004.46,0001.85,0000.94
2024-03-07 01:28:00,SystemResetWarning,0820.2,4.99,000.00,022.0,021.2,000.0,030.5,023.8,11.0,0000.0,0005.53,0001.90,0000.94
2024-03-07 01:29:00,SystemResetWarning,0820.2,4.99,000.00,022.0,021.2,000.0,030.5,023.8,11.0,0000.0,0005.54,0001.89,0000.94
2024-03-07 01:30:00,SystemResetWarning,0820.2,5.00,000.00,022.0,021.2,000.0,030.5,023.9,11.0,0000.0,0005.53,0001.93,0000.94
2024-03-07 01:31:00,SystemResetWarning,0820.2,5.00,000.00,022.0,021.2,000.0,030.5,023.8,10.9,0000.0,0005.76,0001.97,0000.95
2024-03-07 01:32:00,SystemResetWarning,0820.2,5.01,000.00,022.0,021.2,000.0,030.5,023.8,10.9,0000.0,0006.07,0001.96,0000.95
2024-03-07 01:33:00,SystemResetWarning,0820.3,5.00,000.00,022.0,021.2,000.0,030.5,023.8,10.9,0000.0,0005.78,0001.87,0000.94
2024-03-07 01:34:00,SystemResetWarning,0820.3,5.01,000.00,022.0,021.2,000.0,030.5,023.8,10.9,0000.0,0005.68,0001.85,0000.94
2024-03-07 01:35:00,SystemResetWarning,0820.3,5.00,000.00,022.0,021.2,000.0,030.5,023.8,10.9,0000.0,0005.77,0001.87,0000.94
2024-03-07 01:36:00,SystemResetWarning,0820.3,5.00,000.00,022.0,021.2,000.0,030.5,023.8,11.0,0000.0,0006.13,0001.93,0000.95
2024-03-07 01:37:00,SystemResetWarning,0820.4,5.00,000.00,022.0,021.2,000.0,030.5,023.8,11.0,0000.0,0006.22,0001.96,0000.95
2024-03-07 01:38:00,SystemResetWarning,0820.3,5.00,000.00,022.0,021.2,000.0,030.5,023.8,11.1,0000.0,0006.22,0001.96,0000.95
2024-03-07 01:39:00,SystemResetWarning,0820.5,5.00,000.00,022.0,021.2,000.0,030.5,023.8,11.1,0000.0,0005.98,0001.98,0000.94
2024-03-07 01:40:00,SystemResetWarning,0820.5,5.00,000.00,022.0,021.2,000.0,030.5,023.8,11.0,0000.0,0005.76,0001.97,0000.95
2024-03-07 01:41:00,SystemResetWarning,0820.9,5.00,000.00,022.0,021.2,000.0,030.5,023.8,11.0,0000.0,0005.96,0001.98,0000.96
2024-03-07 01:42:00,SystemResetWarning,0820.6,5.00,000.00,022.0,021.2,000.0,030.5,023.8,10.9,0000.0,0006.31,0002.02,0000.96
2024-03-07 01:43:00,SystemResetWarning,0821.0,5.00,000.00,022.0,021.2,000.0,030.5,023.8,10.9,0000.0,0006.18,0002.07,0000.97
2024-03-07 01:44:00,SystemResetWarning,0820.9,4.99,000.00,022.0,021.2,000.0,030.5,023.8,10.8,0000.0,0006.31,0002.06,0000.97
2024-03-07 01:45:00,SystemResetWarning,0820.9,5.00,000.00,022.0,021.2,000.0,030.5,023.8,10.8,0000.0,0006.86,0002.16,0000.96
2024-03-07 01:46:00,SystemResetWarning,0820.5,5.01,000.00,022.0,021.2,000.0,030.5,023.8,10.8,0000.0,0008.17,0002.32,0000.97
2024-03-07 01:47:00,SystemResetWarning,0820.5,5.01,000.00,022.0,021.2,000.0,030.5,023.8,10.9,0000.0,0008.37,0002.32,0000.97
2024-03-07 01:48:00,SystemResetWarning,0820.6,5.00,000.00,022.0,021.2,000.0,030.5,023.8,10.9,0000.0,0008.40,0002.35,0000.96
2024-03-07 01:49:00,SystemResetWarning,0820.6,4.99,000.00,021.9,021.2,000.0,030.4,023.8,10.9,0000.0,0008.39,0002.36,0000.97
2024-03-07 01:50:00,SystemResetWarning,0820.6,4.99,000.00,021.9,021.2,000.0,030.4,023.8,11.0,0000.0,0008.15,0002.36,0000.98
2024-03-07 01:51:00,SystemResetWarning,0820.6,5.00,000.00,022.0,021.2,000.0,030.4,023.8,11.0,0000.0,0008.09,0002.37,0000.98
2024-03-07 01:52:00,SystemResetWarning,0820.7,5.00,000.00,022.0,021.2,000.0,030.4,023.8,11.0,0000.0,0008.07,0002.40,0000.97
2024-03-07 01:53:00,SystemResetWarning,0820.7,5.00,000.00,021.9,021.2,000.0,030.4,023.8,11.0,0000.0,0007.67,0002.33,0000.98
2024-03-07 01:54:00,SystemResetWarning,0820.7,5.01,000.00,022.0,021.2,000.0,030.4,023.8,11.0,0000.0,0007.40,0002.25,0000.98
2024-03-07 01:55:00,SystemResetWarning,0820.8,5.00,000.00,022.0,021.2,000.0,030.4,023.8,11.0,0000.0,0007.31,0002.26,0000.99
2024-03-07 01:56:00,SystemResetWarning,0820.8,4.99,000.00,022.0,021.2,000.0,030.4,023.8,11.0,0000.0,0006.84,0002.17,0001.00
2024-03-07 01:57:00,SystemResetWarning,0820.8,5.00,000.00,022.0,021.2,000.0,030.4,023.8,11.0,0000.0,0005.10,0002.03,0001.01
2024-03-07 01:58:00,SystemResetWarning,0820.8,5.00,000.00,022.0,021.2,000.0,030.4,023.8,11.0,0000.0,0004.67,0002.02,0001.01
2024-03-07 01:59:00,SystemResetWarning,0820.8,5.00,000.00,022.0,021.2,000.0,030.4,023.8,11.1,0000.0,0004.74,0001.98,0001.01
